Theta_e
311 310 310 309 308 308 308 309 309 310 311 312 313 314 315 315 315 317 332 344 335 321 321 324 325 319 322 322 314 316 314 315 312 307 307 305 303 304 302 304 301 299 298 297 298 294 291 306 305 297 302 304 303 301
311 310 310 308 307 307 308 308 309 310 310 311 313 314 315 314 314 316 330 337 333 323 321 329 326 325 324 324 320 316 316 316 314 312 311 308 304 305 303 295 307 299 302 298 299 297 306 307 305 306 305 300 300 299
311 310 309 308 307 307 308 308 309 310 310 311 312 313 314 314 314 316 330 334 329 321 320 321 320 325 327 327 332 316 318 320 314 322 317 312 304 307 299 301 302 306 309 301 303 303 304 305 305 303 302 300 300 301
311 310 309 308 307 307 307 308 309 309 310 311 312 313 314 313 313 317 329 333 333 325 316 319 328 323 328 326 326 327 323 325 323 322 314 310 305 309 301 303 301 304 306 302 302 305 306 304 303 302 302 302 302 303
310 310 309 308 307 307 307 308 308 309 310 311 312 313 313 313 312 318 328 330 329 325 314 316 323 325 327 329 328 329 327 325 317 311 308 304 307 305 305 303 299 304 302 299 297 302 300 300 305 307 304 304 305 304
310 309 309 308 307 307 307 308 308 309 310 311 313 313 313 312 312 330 320 329 323 332 318 311 321 324 326 327 325 324 322 318 315 311 309 312 315 309 303 297 305 307 308 306 302 306 305 305 306 307 303 304 306 305
310 309 309 308 307 307 308 308 309 309 310 310 311 312 312 312 323 320 318 323 314 329 319 311 313 322 326 326 321 320 322 318 314 312 310 310 310 309 302 297 305 308 307 306 307 306 302 304 301 307 305 307 307 306
310 309 308 307 307 307 307 308 309 309 309 310 311 312 313 312 314 320 325 316 316 329 325 312 310 314 328 316 314 320 315 316 315 312 313 309 311 308 300 305 307 306 307 308 308 306 304 303 304 304 305 304 302 302
309 309 308 307 307 307 307 308 308 309 309 310 311 312 321 323 320 320 321 318 332 326 316 313 308 306 319 316 317 316 318 310 317 309 310 311 306 300 304 306 303 305 305 305 308 306 304 302 303 304 303 303 301 301
309 308 308 307 306 307 307 308 308 309 309 311 320 322 315 320 319 324 325 319 318 319 322 314 315 310 316 313 312 314 313 308 304 309 313 305 301 309 308 307 307 310 309 309 302 300 302 304 303 302 302 302 302 302
309 308 307 307 307 307 308 308 308 309 318 327 324 320 325 319 323 322 313 313 313 311 316 315 316 312 319 313 310 315 309 311 304 307 307 303 300 307 308 309 312 310 307 306 305 308 306 304 302 302 302 303 303 302
308 307 306 306 307 307 308 307 308 320 320 313 310 317 327 322 314 312 308 310 312 309 314 313 313 317 316 319 313 310 308 308 304 313 305 299 305 310 310 311 311 307 307 307 308 306 305 305 303 303 302 301 301 303
306 306 306 307 307 307 308 308 309 309 310 323 323 322 311 312 299 304 304 306 306 312 314 314 312 315 314 316 312 309 305 305 313 305 302 304 310 311 311 313 309 308 309 308 307 307 306 305 305 304 302 302 303 302
305 306 306 307 307 308 307 308 309 314 324 323 312 293 306 307 308 308 308 310 314 316 314 314 313 312 315 310 309 307 308 307 302 300 301 307 309 311 313 310 306 307 308 307 306 305 305 304 304 304 303 304 302 302
305 306 306 309 308 307 307 308 310 320 326 312 312 297 306 311 311 312 314 313 314 316 315 312 311 311 309 307 308 304 304 300 302 301 305 310 312 311 309 308 307 308 307 305 305 304 305 304 303 302 303 303 303 302
306 307 312 307 307 306 307 314 328 332 319 315 315 309 311 311 309 311 312 311 315 314 315 314 310 306 306 306 304 304 301 301 304 308 311 313 311 310 309 310 309 309 307 305 304 306 305 305 302 301 303 302 301 301
305 315 308 307 306 307 311 325 326 316 313 312 310 314 310 310 310 311 312 312 317 313 309 309 305 304 307 303 304 306 304 307 309 311 313 313 311 310 311 311 311 309 307 305 305 305 304 306 303 302 301 301 300 300
314 314 309 307 306 315 329 324 319 313 307 312 310 308 310 312 312 312 315 316 316 314 312 308 310 306 303 302 303 307 309 312 313 312 313 313 313 312 312 309 310 308 305 306 305 305 306 302 300 299 301 299 298 298
308 307 306 305 306 310 318 317 321 310 311 314 313 311 310 311 313 314 315 316 317 318 314 311 306 304 306 310 310 310 311 312 310 312 313 314 313 313 311 310 309 306 305 305 305 306 303 302 302 301 299 298 296 297
305 306 306 307 311 319 313 315 324 315 310 312 312 310 312 312 312 314 314 315 315 314 309 307 308 309 309 312 314 314 313 314 311 308 309 310 313 313 311 309 307 307 306 307 308 300 302 300 301 301 299 298 297 296
313 314 310 317 324 320 315 315 315 315 315 313 312 312 311 312 312 314 313 314 312 308 307 311 311 313 315 315 315 315 313 313 311 308 307 309 312 312 311 312 310 307 306 303 302 300 298 299 301 300 300 299 299 298
316 310 319 321 314 314 314 318 314 318 315 312 311 312 310 310 311 312 312 309 309 310 312 312 313 312 311 311 311 315 314 312 313 308 301 302 305 305 306 308 308 305 304 304 303 302 301 301 301 301 300 300 298 299
311 312 315 313 307 300 302 317 313 313 307 308 309 308 307 308 312 313 306 311 312 315 315 314 314 316 314 313 314 313 313 311 310 311 312 310 310 311 308 309 309 306 305 305 305 303 302 298 298 300 301 300 299 298
305 311 307 307 306 298 311 309 311 309 309 306 305 304 307 310 313 308 304 309 310 313 313 314 313 312 312 314 311 311 312 313 311 312 313 311 308 308 310 309 308 308 308 307 306 306 305 303 297 300 300 300 299 298
300 299 302 291 306 305 302 303 304 304 302 304 302 304 308 311 305 304 304 308 311 312 312 314 313 312 310 311 312 313 316 314 311 310 312 311 308 307 307 308 310 309 309 308 307 307 305 303 301 300 300 300 299 298
290 303 298 303 303 302 302 300 300 301 303 301 303 309 310 306 301 300 307 310 311 313 313 313 311 310 310 310 310 311 313 316 314 310 311 311 309 306 305 306 306 307 310 308 306 305 304 303 302 301 300 300 293 296
293 302 307 310 308 307 305 306 307 305 301 300 304 305 304 298 298 306 312 315 313 315 316 315 314 312 311 310 311 312 313 316 314 312 313 313 313 312 309 306 306 308 311 310 308 307 305 303 302 301 300 300 300 300
304 305 302 306 306 308 303 303 302 301 304 309 307 300 299 300 303 312 316 319 317 318 317 316 317 315 314 314 313 311 311 312 317 313 310 310 309 310 313 311 312 302 308 310 309 308 307 305 304 303 301 299 300 300
303 307 306 302 304 304 304 303 303 307 311 309 305 303 306 310 314 314 316 316 318 317 314 312 313 315 312 311 311 311 311 313 309 306 304 302 304 307 313 313 311 309 308 309 293 299 307 306 305 304 304 302 301 301
302 307 302 302 301 300 306 311 309 314 314 314 312 310 309 310 314 316 315 314 312 312 314 313 311 309 308 308 308 310 311 311 312 310 306 306 307 312 312 312 311 310 310 310 310 308 288 296 294 300 299 299 299 300
307 305 302 302 302 306 309 312 313 313 313 311 311 308 306 308 311 314 314 315 314 313 312 310 310 311 311 309 309 308 306 311 312 312 309 309 310 311 313 314 314 312 311 310 309 307 306 301 302 302 302 301 302 299
304 302 301 299 302 308 309 306 305 305 305 305 305 307 307 307 304 309 315 315 313 311 302 307 310 310 313 312 311 312 296 312 311 311 312 311 311 313 312 311 311 310 310 308 308 308 308 307 305 305 304 304 304 303
302 302 302 301 301 301 304 304 303 301 302 302 302 304 304 303 302 309 315 316 315 311 311 312 312 312 314 316 314 312 302 313 309 293 290 289 289 296 305 310 310 311 310 309 308 307 306 305 304 303 303 302 302 303
Wind_Speed
11 13 14 16 18 19 20 21 21 22 22 22 23 22 21 18 11 5 5 1 5 5 6 8 7 7 5 5 5 3 3 3 4 2 2 2 4 3 5 5 3 5 3 4 4 4 2 14 9 7 4 5 7 7
11 13 14 16 18 20 21 21 21 21 22 22 22 23 23 21 19 10 3 5 4 6 5 3 6 7 8 5 3 2 3 3 1 3 5 6 5 6 3 3 8 6 3 3 4 4 3 2 5 5 6 4 6 7
11 13 15 16 18 19 20 21 21 21 21 21 21 22 22 22 21 9 3 4 4 7 5 7 9 9 10 7 3 5 2 1 1 4 2 3 6 4 4 4 3 5 5 5 4 2 3 6 5 4 5 5 5 5
11 13 14 17 18 19 20 21 21 21 21 20 19 20 21 21 20 10 3 4 2 3 4 4 6 8 6 6 7 4 4 3 1 0 4 4 5 6 4 6 5 2 4 5 4 5 3 4 2 3 2 3 4 7
12 13 14 17 18 20 20 21 21 21 20 19 18 18 19 19 18 6 2 3 3 4 4 2 6 6 5 4 5 3 2 1 3 6 4 4 5 7 4 5 4 3 3 2 2 4 2 5 4 7 7 5 6 5
12 13 15 17 19 20 20 21 21 21 21 18 17 16 17 18 15 2 2 4 7 4 5 4 2 3 3 3 7 7 5 5 4 4 3 3 3 6 4 3 4 5 6 4 2 2 2 1 5 2 3 2 1 5
12 14 16 18 19 20 21 21 22 21 21 18 17 14 14 15 5 4 2 4 7 3 5 4 3 0 3 2 3 5 7 4 5 2 4 4 4 6 4 3 6 5 5 3 3 4 2 5 3 3 3 6 6 7
12 14 16 18 20 20 21 22 22 21 21 19 16 14 13 10 4 2 2 4 5 2 1 4 2 1 1 2 2 3 3 3 2 2 4 4 3 4 4 4 7 5 2 4 5 0 5 6 8 6 5 6 8 7
12 15 17 19 20 21 21 22 22 22 21 18 17 16 3 1 3 3 9 10 3 3 2 4 5 3 4 3 4 2 3 2 3 3 2 5 3 4 7 5 8 2 1 3 8 6 7 4 8 7 8 9 7 7
13 15 18 19 21 21 21 23 23 23 21 15 3 2 3 2 5 7 5 5 3 3 2 2 2 3 4 2 2 4 3 2 3 1 4 4 2 4 7 7 5 6 2 2 5 5 6 5 7 7 7 7 7 7
13 16 18 20 20 20 20 22 25 24 6 3 3 3 3 1 3 1 2 1 1 1 3 2 2 4 3 3 3 2 1 3 3 3 5 3 3 5 8 6 7 4 3 4 2 3 6 6 6 7 7 7 7 7
14 17 18 19 19 19 19 19 18 8 3 1 4 6 4 2 3 3 1 2 2 3 2 3 2 3 2 2 0 1 2 2 3 3 3 3 3 7 7 6 4 5 4 1 6 8 8 8 7 6 6 6 6 7
15 17 18 19 18 18 18 16 9 9 11 3 3 2 5 2 5 3 2 1 3 3 2 1 1 1 1 2 1 2 2 3 6 3 2 3 7 7 6 7 7 7 3 8 8 8 8 7 7 6 6 6 6 6
16 17 18 17 17 17 18 15 10 6 2 3 2 5 2 1 5 5 5 4 4 4 4 1 2 0 1 1 2 2 2 2 3 4 3 5 7 6 6 5 3 4 8 8 8 7 6 6 6 7 6 5 5 6
17 18 16 12 14 16 19 18 10 3 3 4 1 3 4 2 4 4 2 4 3 4 5 5 2 2 2 1 1 5 1 3 5 3 3 5 7 5 5 6 5 7 7 6 5 4 5 6 5 5 7 4 5 6
18 15 3 11 16 21 17 12 2 2 3 2 3 2 3 1 3 1 5 5 5 5 4 2 2 4 1 2 3 3 2 6 3 3 6 5 5 6 6 5 6 5 5 3 3 3 4 4 3 4 5 4 4 6
13 3 10 15 20 22 4 1 3 2 3 3 2 3 5 3 3 4 4 3 4 4 2 3 4 3 2 3 2 4 3 4 5 5 4 5 5 5 5 5 6 4 4 4 2 1 2 2 2 4 3 3 4 7
1 7 14 15 13 6 3 1 4 1 2 1 0 3 3 4 4 4 2 4 3 3 4 3 2 2 2 4 4 4 6 6 5 5 4 5 4 3 3 3 2 2 3 4 1 5 4 2 3 3 3 3 5 6
9 11 17 13 4 3 3 2 2 3 4 3 2 1 3 1 1 2 1 1 2 3 3 3 1 3 4 4 3 4 4 5 6 5 4 6 6 4 3 3 2 2 3 4 6 5 3 5 2 3 3 3 3 3
14 11 12 12 6 3 2 1 0 4 1 1 1 2 2 2 0 1 1 1 2 2 1 1 4 4 3 3 4 4 4 4 4 4 5 5 4 4 5 4 4 3 4 6 5 4 1 2 3 4 2 1 1 3
6 5 10 3 3 3 4 3 1 2 3 2 3 2 2 3 4 1 1 1 3 2 0 4 5 4 5 5 4 4 4 6 4 4 3 5 3 6 5 6 6 4 5 3 2 2 3 2 3 2 1 1 2 4
3 8 3 3 2 5 3 1 3 2 2 2 1 3 3 1 1 2 2 3 2 3 3 5 4 4 4 2 1 5 3 4 3 2 2 4 3 3 4 5 4 4 2 3 3 3 2 2 2 1 2 4 4 4
8 1 3 2 1 3 5 2 3 1 2 2 2 2 1 2 2 1 2 2 3 3 5 6 4 4 6 4 2 2 3 4 3 4 5 5 4 5 4 5 4 5 5 4 4 4 4 3 2 4 4 4 2 2
1 3 4 3 4 3 2 3 2 2 2 2 2 0 1 2 2 2 4 2 4 5 6 6 3 3 3 5 5 6 8 6 6 5 5 5 4 4 5 5 4 3 4 4 5 5 5 4 5 3 2 3 3 2
3 4 2 5 4 3 3 4 2 3 2 1 2 1 2 2 2 3 3 2 4 4 6 4 4 4 4 5 6 8 10 7 7 8 4 4 2 1 3 3 4 6 5 4 5 5 4 4 2 2 4 4 4 5
2 3 3 3 1 3 0 1 2 2 2 0 2 1 1 2 3 3 1 5 5 4 4 3 3 3 4 5 5 4 4 5 2 1 2 3 3 3 4 3 4 5 1 1 2 5 4 3 3 4 4 5 4 4
3 1 4 3 3 2 4 1 3 3 2 2 2 1 2 3 3 2 4 4 4 4 4 4 4 4 4 5 6 7 5 3 4 4 4 4 2 3 4 5 4 4 1 2 1 2 3 3 2 3 5 3 3 4
3 3 5 2 3 1 4 4 3 2 2 1 1 3 2 3 3 3 3 2 3 3 2 2 2 3 4 4 5 6 6 5 4 8 9 11 6 10 11 6 6 10 6 6 6 4 4 4 5 5 5 5 5 3
4 2 2 6 6 2 2 3 3 3 5 4 4 4 4 4 4 3 3 3 2 1 2 3 3 3 4 5 6 6 4 2 4 4 8 7 4 7 13 9 3 4 4 5 8 8 10 8 7 7 7 5 4 5
3 1 3 7 6 3 3 4 4 3 2 2 3 4 5 5 4 4 4 3 4 4 4 4 5 6 7 6 5 4 3 4 2 3 4 5 8 11 5 5 4 4 3 4 4 6 3 1 3 3 3 4 6 8
4 2 4 6 7 6 5 4 4 3 2 2 3 5 7 7 6 6 7 6 6 6 6 7 8 5 2 3 3 3 4 2 5 6 5 4 5 5 4 4 4 3 4 5 4 5 4 6 8 10 11 13 15 11
4 5 6 9 7 5 6 5 6 6 7 7 7 7 7 6 8 5 4 3 2 2 4 4 4 3 4 4 5 3 5 1 4 5 8 4 4 3 4 4 3 3 3 4 4 5 7 8 6 7 8 11 11 12
6 6 7 7 6 8 6 6 6 8 7 7 7 8 9 7 6 2 2 1 1 2 4 4 5 5 6 4 4 3 4 5 7 8 9 7 7 7 5 5 5 5 6 6 6 6 9 11 11 11 11 12 13 13
Wind_Direction
353 350 344 344 336 338 335 338 337 336 337 336 336 337 338 343 339 349 274 226 129 108 24 17 26 27 25 31 113 235 37 342 356 316 32 94 81 79 75 53 54 60 319 30 36 70 42 340 31 63 246 341 3 6
353 346 342 343 336 336 335 337 337 336 336 335 336 338 338 344 346 339 24 351 58 88 178 55 48 45 79 66 99 36 133 72 322 14 359 42 36 48 73 71 16 45 54 91 51 118 203 19 79 24 42 25 357 355
349 344 342 340 335 334 332 335 335 335 334 335 337 336 336 341 350 2 347 352 41 98 54 43 35 16 35 40 43 107 44 57 10 188 190 88 71 73 87 43 110 60 51 109 95 56 98 86 69 52 64 30 6 350
347 342 341 337 332 331 330 332 334 332 330 333 335 332 333 337 339 349 340 327 68 115 88 9 47 38 37 38 50 58 122 20 349 44 55 76 91 57 39 94 87 24 44 114 117 140 199 75 99 101 72 13 7 332
344 340 340 334 329 329 326 328 333 329 326 331 333 328 329 330 329 302 263 36 30 120 118 114 55 17 16 46 61 49 42 32 55 54 79 89 119 77 121 79 40 27 327 75 100 144 101 285 309 65 48 45 20 23
339 338 338 331 328 327 323 326 329 326 325 331 328 325 328 328 329 355 29 3 11 22 111 80 289 86 16 34 37 37 57 57 66 80 77 47 51 104 97 101 159 124 69 68 132 74 226 37 89 49 354 349 357 285
334 338 334 328 324 324 322 325 327 324 324 328 321 320 319 331 349 55 176 263 343 327 95 111 120 9 178 145 39 38 34 67 94 80 55 91 41 70 58 102 121 103 91 341 13 326 298 35 327 296 209 268 254 274
334 336 329 323 322 323 321 323 325 324 323 321 315 307 305 310 264 8 243 261 316 24 212 100 87 175 170 169 105 118 90 72 38 127 55 104 54 73 92 127 102 93 192 236 284 34 82 18 343 336 355 25 15 4
333 331 324 320 322 322 321 321 326 325 320 315 310 301 309 81 31 280 282 301 208 127 315 102 156 169 164 239 120 112 158 108 194 97 90 88 51 38 148 148 100 84 350 324 303 45 42 333 302 18 26 17 17 4
329 326 321 320 320 321 319 324 330 325 315 308 351 301 23 335 268 306 359 14 2 323 357 106 113 148 161 147 248 165 115 193 104 168 89 79 67 128 84 103 143 207 273 325 38 335 298 6 31 17 23 18 12 4
325 321 316 318 319 316 319 333 334 327 323 357 319 24 311 292 11 243 230 238 200 352 15 345 20 120 28 85 252 112 359 150 135 208 125 123 148 172 143 189 219 156 50 294 269 354 54 55 31 26 12 15 14 360
320 315 314 316 315 314 321 336 340 351 47 22 281 270 284 312 18 330 116 254 358 65 60 11 31 61 1 33 121 301 256 95 93 141 116 111 139 150 172 196 162 115 243 271 56 50 36 42 32 25 21 16 2 8
314 312 314 314 311 311 322 329 334 267 283 175 230 342 53 284 32 244 185 27 84 345 81 76 341 104 0 322 5 352 27 68 124 150 87 87 143 148 176 213 150 188 171 63 49 42 38 31 24 36 22 359 21 360
310 311 310 309 306 310 322 326 329 348 299 257 107 348 169 256 34 34 41 46 337 345 335 5 145 289 357 81 4 266 60 9 233 142 101 146 147 164 204 126 119 84 73 61 50 33 28 24 24 37 3 5 4 2
309 308 307 302 313 326 326 321 316 197 284 13 339 342 47 29 42 355 344 88 341 338 357 341 352 160 205 115 274 31 221 255 37 71 123 133 140 162 118 98 65 76 67 55 44 28 28 20 42 9 326 21 11 350
312 304 327 321 339 330 326 314 279 250 336 353 317 340 355 331 141 320 19 46 5 344 311 278 312 30 13 340 215 200 326 42 63 100 116 116 133 114 108 100 85 75 93 88 48 46 38 334 62 323 315 20 20 326
306 11 329 352 342 314 311 279 280 357 331 293 65 11 343 84 50 34 46 8 341 340 306 288 22 69 360 259 76 41 56 125 120 109 119 134 126 124 126 128 152 169 131 102 57 44 296 277 20 317 356 40 353 333
243 346 342 347 346 299 255 283 309 283 265 232 97 73 29 27 8 44 56 11 352 305 350 15 319 269 260 35 28 94 87 76 93 112 108 107 116 152 154 132 99 70 114 103 240 252 258 127 297 288 67 40 10 326
290 298 305 315 30 298 295 53 23 313 31 20 60 2 110 110 249 240 194 197 269 288 323 305 274 9 50 43 83 111 126 136 137 132 144 163 172 156 130 79 9 277 151 223 242 245 199 207 236 95 88 44 333 329
293 277 282 294 191 269 286 63 277 271 230 11 319 271 70 98 212 233 129 281 242 241 232 298 59 32 55 33 49 50 82 119 134 164 193 172 152 155 167 202 218 179 245 266 248 189 160 41 72 92 70 6 313 314
293 339 324 328 216 243 340 322 338 9 334 278 64 272 141 208 238 191 102 260 249 295 19 104 106 83 61 31 28 35 61 56 57 82 47 95 173 193 207 204 208 215 231 230 188 164 185 127 131 128 104 273 276 274
346 340 306 244 288 19 277 0 305 8 271 20 245 259 202 223 159 72 356 257 256 71 53 90 102 125 110 94 92 54 30 84 115 145 154 166 211 227 239 215 200 214 211 251 187 147 129 122 148 209 217 245 261 269
297 139 238 268 315 55 262 255 263 267 251 192 340 290 181 206 98 32 259 279 109 96 100 105 117 60 109 131 246 239 222 243 243 235 233 213 234 223 219 228 207 197 212 228 158 145 146 181 167 197 244 254 221 281
102 290 328 305 155 253 243 218 261 265 301 234 242 278 125 53 29 244 264 342 106 113 114 130 149 180 175 202 216 226 224 209 233 244 224 207 222 245 226 211 218 215 190 180 180 179 182 194 191 227 232 254 253 229
327 306 155 297 266 256 234 182 213 237 246 42 337 277 124 107 272 286 311 24 152 154 153 170 187 218 236 236 232 234 237 205 208 237 261 187 185 264 294 288 230 203 204 196 210 191 172 168 177 239 259 259 257 257
23 182 158 294 199 276 292 245 221 273 310 308 253 57 65 318 286 268 26 44 51 49 58 41 4 343 346 2 360 16 5 345 317 201 179 272 341 6 329 349 338 319 272 161 135 142 157 159 219 261 273 278 254 228
273 167 184 223 302 279 268 275 18 322 269 255 299 292 263 240 267 45 54 39 53 49 42 43 33 8 343 335 335 329 320 293 224 151 186 223 280 261 254 275 271 249 309 343 359 152 181 203 229 281 277 285 298 286
323 324 311 27 309 20 311 321 308 281 290 62 52 279 267 334 10 35 71 55 32 12 335 306 279 265 265 267 282 286 284 271 129 68 53 329 334 324 291 245 236 235 219 215 219 225 201 186 202 227 248 254 249 257
255 267 292 295 281 268 254 275 300 14 30 19 3 336 336 344 357 357 344 334 324 10 301 285 303 307 298 287 284 278 286 125 149 181 193 227 248 255 250 246 212 173 207 217 220 223 226 220 208 205 221 222 224 245
253 31 311 307 306 284 294 16 352 356 27 29 350 320 306 300 321 333 324 319 309 297 273 264 268 270 269 273 285 318 326 307 311 192 227 236 239 248 239 248 240 240 236 234 241 217 127 185 149 175 198 230 235 241
310 321 287 284 287 290 310 331 340 334 332 302 286 274 277 274 262 250 249 244 243 248 247 255 254 249 284 309 311 322 307 358 354 344 334 316 323 303 277 272 253 228 227 236 251 266 238 190 211 220 226 230 236 232
293 290 292 293 300 326 338 324 303 290 282 274 269 266 272 274 277 272 251 251 272 344 355 350 344 315 316 298 285 277 183 301 303 283 287 268 262 291 308 325 337 0 352 338 316 303 295 279 256 247 250 255 254 252
286 279 280 271 275 282 274 265 275 288 290 289 296 284 272 274 301 34 10 74 134 276 265 263 268 272 271 267 263 267 230 237 265 280 285 283 287 306 313 300 286 271 266 263 265 273 282 280 281 279 279 279 278 273